Weather History for K2I0 - October, 2013

Change the Weather History Date:

Saturday, October 19, 2013

  Actual Average (KOWB) Record (KOWB)
Temperature  
Mean Temperature 49 °F -  
Max Temperature 57 °F 65 °F 89 °F (1953)
Min Temperature 41 °F 42 °F 26 °F (1992)
Degree Days  
Heating Degree Days 16    
Moisture  
Dew Point 47 °F    
Average Humidity 88    
Maximum Humidity 100    
Minimum Humidity 54    
Precipitation  
Precipitation 0.17 in - - ()
Sea Level Pressure  
Sea Level Pressure 29.98 in    
Wind  
Wind Speed 3 mph (WNW)    
Max Wind Speed 13 mph    
Max Gust Speed 20 mph    
Visibility 9 miles    
Events Rain    
Averages and records for this station are not official NWS values.
T = Trace of Precipitation, MM = Missing Value Source: NWS Daily Summary

Daily Weather History Graph

Daily Weather History Graph

Search for Another Location

Airport or City:

Trip Planner

Search our weather history database for the weather conditions in past years. The results will help you decide how hot, cold, wet, or windy it might be!

Date:

Astronomy

Oct. 19, 2013 Rise Set
Actual Time 7:01 AM CDT 6:06 PM CDT
Civil Twilight 6:35 AM CDT 6:33 PM CDT
Nautical Twilight 6:04 AM CDT 7:03 PM CDT
Astronomical Twilight 5:34 AM CDT 7:33 PM CDT
Moon 6:36 PM CDT (10/19) 7:37 AM CDT (10/19)
Length of Visible Light 11h 58m
Length of Day
11h 05m
Waxing Gibbous, 99% of the Moon is Illuminated
Oct 19
Waxing Gibbous
Oct 26
Last Quarter
Nov 3
New
Nov 9
First Quarter
Nov 17
Full

Hourly Weather History & Observations

Time (CDT) Temp. Windchill Dew Point Humidity Pressure Visibility Wind Dir Wind Speed Gust Speed Precip Events Conditions
12:15 AM 52.9 °F - 51.3 °F 94% 29.96 in 10.0 mi Calm Calm - N/A   Overcast
12:35 AM 52.7 °F - 52.2 °F 98% 29.96 in 10.0 mi Calm Calm - N/A   Overcast
12:55 AM 53.1 °F - 52.7 °F 99% 29.96 in 10.0 mi Calm Calm - N/A   Overcast
1:15 AM 53.6 °F - 52.2 °F 95% 29.96 in 10.0 mi Calm Calm - N/A   Overcast
1:35 AM 53.8 °F - 52.7 °F 96% 29.95 in 10.0 mi Calm Calm - N/A Rain Light Rain
1:55 AM 53.6 °F - 53.2 °F 99% 29.94 in 10.0 mi Calm Calm - N/A   Overcast
2:15 AM 53.6 °F - 52.7 °F 97% 29.93 in 10.0 mi Calm Calm - N/A   Light Drizzle
2:35 AM 53.6 °F - 52.9 °F 97% 29.92 in 10.0 mi Calm Calm - N/A   Overcast
2:55 AM 53.6 °F - 53.4 °F 99% 29.92 in 7.0 mi Calm Calm - N/A   Overcast
3:15 AM 53.6 °F - 53.4 °F 99% 29.91 in 10.0 mi Calm Calm - N/A Rain Rain
3:35 AM 53.6 °F - 53.6 °F 100% 29.90 in 7.0 mi Calm Calm - N/A   Overcast
3:55 AM 53.6 °F - 53.6 °F 100% 29.89 in 7.0 mi Calm Calm - N/A Rain Light Rain
4:15 AM 53.2 °F - 53.2 °F 100% 29.89 in 7.0 mi Calm Calm - N/A Rain Light Rain
4:35 AM 53.2 °F - 53.2 °F 100% 29.90 in 7.0 mi Calm Calm - N/A   Overcast
4:55 AM 53.1 °F - 53.1 °F 100% 29.90 in 7.0 mi NW 3.5 mph - 0.01 in Rain Light Rain
5:15 AM 52.9 °F - 52.7 °F 99% 29.90 in 7.0 mi NNW 3.5 mph - N/A Rain Light Rain
5:35 AM 52.7 °F - 52.0 °F 97% 29.90 in 10.0 mi Calm Calm - N/A Rain Light Rain
5:55 AM 52.3 °F - 52.0 °F 99% 29.90 in 7.0 mi Calm Calm - N/A   Drizzle
6:15 AM 52.2 °F - 51.8 °F 99% 29.89 in 7.0 mi Calm Calm - N/A Rain Light Rain
6:35 AM 51.8 °F - 51.8 °F 100% 29.90 in 5.0 mi NNW 4.6 mph - 0.01 in Rain Light Rain
6:55 AM 51.4 °F - 51.4 °F 100% 29.91 in 5.0 mi NNW 5.8 mph - 0.01 in Rain Light Rain
7:15 AM 51.1 °F - 50.9 °F 99% 29.92 in 5.0 mi NW 6.9 mph - 0.01 in Rain Light Rain
7:35 AM 50.4 °F - 50.0 °F 99% 29.94 in 5.0 mi NW 8.1 mph - 0.03 in Rain Rain
7:55 AM 50.0 °F - 49.5 °F 98% 29.95 in 7.0 mi NW 12.7 mph 18.4 mph 0.04 in Rain Light Rain
8:15 AM 49.1 °F - 48.6 °F 98% 29.96 in 5.0 mi NNW 10.4 mph 19.6 mph 0.01 in Rain Light Rain
8:35 AM 48.7 °F - 48.4 °F 99% 29.98 in 5.0 mi NNW 8.1 mph - 0.07 in Rain Rain
8:55 AM 48.7 °F - 48.7 °F 100% 29.97 in 7.0 mi NNW 4.6 mph - 0.10 in Rain Rain
9:15 AM 49.1 °F - 48.9 °F 99% 29.98 in 10.0 mi NNW 5.8 mph - 0.01 in Rain Light Rain
9:35 AM 49.6 °F - 49.3 °F 99% 29.98 in 10.0 mi NW 5.8 mph - 0.01 in   Overcast
9:55 AM 50.5 °F - 50.0 °F 98% 29.99 in 10.0 mi NW 8.1 mph - 0.01 in   Overcast
10:15 AM 50.0 °F - 48.2 °F 94% 30.00 in 10.0 mi NNW 9.2 mph - N/A   Overcast
10:35 AM 49.6 °F - 47.8 °F 94% 30.00 in 10.0 mi NW 9.2 mph 17.3 mph N/A   Overcast
10:55 AM 50.4 °F - 47.1 °F 89% 30.01 in 10.0 mi WNW 10.4 mph - N/A   Overcast
11:15 AM 50.0 °F - 45.7 °F 85% 30.01 in 10.0 mi WNW 10.4 mph - N/A   Overcast
11:35 AM 50.4 °F - 45.1 °F 82% 30.01 in 10.0 mi NW 11.5 mph - N/A   Overcast
11:55 AM 51.6 °F - 45.0 °F 78% 30.01 in 10.0 mi WNW 12.7 mph - N/A   Overcast
1:55 PM 54.0 °F - 44.8 °F 71% 30.00 in 10.0 mi NNW 5.8 mph 16.1 mph N/A   Overcast
2:15 PM 53.8 °F - 42.6 °F 66% 30.01 in 10.0 mi WNW 8.1 mph - N/A   Mostly Cloudy
2:35 PM 54.7 °F - 43.3 °F 66% 30.01 in 10.0 mi WNW 9.2 mph - N/A   Scattered Clouds
2:55 PM 54.9 °F - 41.5 °F 61% 30.01 in 10.0 mi NNW 8.1 mph - N/A   Mostly Cloudy
3:15 PM 55.0 °F - 41.5 °F 60% 30.01 in 10.0 mi North 8.1 mph - N/A   Mostly Cloudy
3:35 PM 54.9 °F - 40.1 °F 58% 30.01 in 10.0 mi NW 5.8 mph - N/A   Scattered Clouds
3:55 PM 55.9 °F - 40.1 °F 55% 30.01 in 10.0 mi WNW 8.1 mph - N/A   Clear
4:15 PM 57.0 °F - 40.6 °F 54% 30.01 in 10.0 mi NW 5.8 mph - N/A   Clear
4:35 PM 56.5 °F - 40.6 °F 55% 30.01 in 10.0 mi NW 3.5 mph - N/A   Clear
4:55 PM 56.3 °F - 40.1 °F 55% 30.01 in 10.0 mi NW 3.5 mph - N/A   Clear
5:15 PM 55.8 °F - 39.7 °F 55% 30.01 in 10.0 mi NW 6.9 mph - N/A   Clear
5:35 PM 54.9 °F - 39.9 °F 57% 30.01 in 10.0 mi West 3.5 mph - N/A   Clear
5:55 PM 53.2 °F - 40.5 °F 62% 30.02 in 10.0 mi West 3.5 mph - N/A   Clear
6:15 PM 51.1 °F - 41.5 °F 70% 30.02 in 10.0 mi Calm Calm - N/A   Clear
6:35 PM 48.2 °F - 41.9 °F 79% 30.02 in 10.0 mi Calm Calm - N/A   Clear
6:55 PM 46.6 °F - 42.3 °F 85% 30.02 in 10.0 mi Calm Calm - N/A   Clear
7:15 PM 44.8 °F - 41.5 °F 88% 30.03 in 10.0 mi Calm Calm - N/A   Clear
7:35 PM 45.0 °F - 41.5 °F 88% 30.03 in 10.0 mi Calm Calm - N/A   Clear
7:55 PM 43.9 °F 42.3 °F 42.1 °F 93% 30.04 in 10.0 mi SSW 3.5 mph - N/A   Clear
8:15 PM 44.1 °F 41.5 °F 42.8 °F 95% 30.04 in 10.0 mi SSW 4.6 mph - N/A   Clear
8:35 PM 43.9 °F 41.3 °F 42.6 °F 95% 30.04 in 10.0 mi SSW 4.6 mph - N/A   Clear
8:55 PM 44.4 °F 41.2 °F 42.8 °F 94% 30.05 in 10.0 mi SSW 5.8 mph - N/A   Clear
9:15 PM 43.7 °F 41.1 °F 41.9 °F 93% 30.05 in 10.0 mi SSW 4.6 mph - N/A   Clear
9:35 PM 42.8 °F 41.1 °F 41.2 °F 94% 30.06 in 10.0 mi SSW 3.5 mph - N/A   Clear
9:55 PM 42.8 °F 41.1 °F 41.9 °F 97% 30.06 in 10.0 mi SSW 3.5 mph - N/A   Clear
10:15 PM 41.9 °F 40.0 °F 41.4 °F 98% 30.06 in 10.0 mi SSW 3.5 mph - N/A   Clear
10:35 PM 41.9 °F 40.0 °F 41.0 °F 97% 30.06 in 10.0 mi SSW 3.5 mph - N/A   Clear
10:55 PM 43.7 °F 41.1 °F 43.0 °F 97% 30.07 in 10.0 mi SSW 4.6 mph - N/A   Clear
11:15 PM 43.2 °F 41.5 °F 42.6 °F 98% 30.06 in 10.0 mi SSW 3.5 mph - N/A   Clear
11:35 PM 43.0 °F 41.3 °F 42.8 °F 99% 30.06 in 10.0 mi SSW 3.5 mph - N/A   Clear
11:55 PM 41.9 °F - 41.9 °F 100% 30.05 in 10.0 mi Calm Calm - N/A   Clear